Time,TemperatureF,DewpointF,PressureIn,WindDirection,WindDirectionDegrees,WindSpeedMPH,WindSpeedGustMPH,Humidity,HourlyPrecipIn,Conditions,Clouds,dailyrainin,SoftwareType,DateUTC
2013-07-23 00:02:00,83.0,-99.9,-100.00,WNW,285,5.0,12.0,-999,-99.99,,,-99.99,,2013-07-23 07:02:00,
2013-07-23 00:12:00,83.0,-99.9,-100.00,WNW,285,5.0,12.0,-999,-99.99,,,-99.99,,2013-07-23 07:12:00,
2013-07-23 01:01:00,82.0,-99.9,-100.00,NW,313,7.0,14.0,-999,-99.99,,,-99.99,,2013-07-23 08:01:00,
2013-07-23 01:11:00,82.0,-99.9,-100.00,NW,313,7.0,14.0,-999,-99.99,,,-99.99,,2013-07-23 08:11:00,
2013-07-23 02:11:00,80.0,-99.9,-100.00,NNW,334,5.0,8.0,-999,-99.99,,,-99.99,,2013-07-23 09:11:00,
2013-07-23 03:02:00,77.0,-99.9,-100.00,NW,322,6.0,12.0,-999,-99.99,,,-99.99,,2013-07-23 10:02:00,
2013-07-23 03:11:00,77.0,-99.9,-100.00,NW,322,6.0,12.0,-999,-99.99,,,-99.99,,2013-07-23 10:11:00,
2013-07-23 04:02:00,73.0,-99.9,-100.00,SSW,192,2.0,5.0,-999,-99.99,,,-99.99,,2013-07-23 11:02:00,
2013-07-23 04:12:00,73.0,-99.9,-100.00,SSW,192,2.0,5.0,-999,-99.99,,,-99.99,,2013-07-23 11:12:00,
2013-07-23 05:02:00,73.0,-99.9,-100.00,WSW,248,2.0,7.0,-999,-99.99,,,-99.99,,2013-07-23 12:02:00,
2013-07-23 05:11:00,73.0,-99.9,-100.00,WSW,248,2.0,7.0,-999,-99.99,,,-99.99,,2013-07-23 12:11:00,
2013-07-23 06:11:00,67.0,-99.9,-100.00,WSW,239,2.0,3.0,-999,-99.99,,,-99.99,,2013-07-23 13:11:00,
2013-07-23 07:12:00,67.0,-99.9,-100.00,WSW,241,3.0,6.0,-999,-99.99,,,-99.99,,2013-07-23 14:12:00,
2013-07-23 08:11:00,75.0,-99.9,-100.00,WSW,256,1.0,2.0,-999,-99.99,,,-99.99,,2013-07-23 15:11:00,
2013-07-23 09:01:00,81.0,-99.9,-100.00,SE,146,2.0,6.0,-999,-99.99,,,-99.99,,2013-07-23 16:01:00,
2013-07-23 09:12:00,81.0,-99.9,-100.00,SE,146,2.0,6.0,-999,-99.99,,,-99.99,,2013-07-23 16:12:00,
2013-07-23 10:02:00,84.0,-99.9,-100.00,SSW,211,1.0,3.0,-999,-99.99,,,-99.99,,2013-07-23 17:02:00,
2013-07-23 10:11:00,84.0,-99.9,-100.00,SSW,211,1.0,3.0,-999,-99.99,,,-99.99,,2013-07-23 17:11:00,
2013-07-23 11:05:00,88.0,-99.9,-100.00,NE,36,2.0,5.0,-999,-99.99,,,-99.99,,2013-07-23 18:05:00,
2013-07-23 11:14:00,88.0,-99.9,-100.00,NE,36,2.0,5.0,-999,-99.99,,,-99.99,,2013-07-23 18:14:00,
2013-07-23 11:15:00,91.0,-99.9,-100.00,NNW,333,3.0,7.0,-999,-99.99,,,-99.99,,2013-07-23 18:15:00,
2013-07-23 12:04:00,91.0,-99.9,-100.00,NNW,333,3.0,7.0,-999,-99.99,,,-99.99,,2013-07-23 19:04:00,
2013-07-23 12:15:00,94.0,-99.9,-100.00,NNE,29,3.0,10.0,-999,-99.99,,,-99.99,,2013-07-23 19:15:00,
2013-07-23 13:15:00,96.0,-99.9,-100.00,NW,305,3.0,10.0,-999,-99.99,,,-99.99,,2013-07-23 20:15:00,
2013-07-23 15:06:00,98.0,-99.9,-100.00,ENE,71,3.0,9.0,-999,-99.99,,,-99.99,,2013-07-23 22:06:00,
2013-07-23 15:14:00,98.0,-99.9,-100.00,ENE,71,3.0,9.0,-999,-99.99,,,-99.99,,2013-07-23 22:14:00,
2013-07-23 15:15:00,101.0,-99.9,-100.00,SSE,159,3.0,12.0,-999,-99.99,,,-99.99,,2013-07-23 22:15:00,
2013-07-23 16:07:00,101.0,-99.9,-100.00,SSE,159,3.0,12.0,-999,-99.99,,,-99.99,,2013-07-23 23:07:00,
2013-07-23 16:15:00,101.0,-99.9,-100.00,SE,142,3.0,12.0,-999,-99.99,,,-99.99,,2013-07-23 23:15:00,
2013-07-23 17:15:00,101.0,-99.9,-100.00,SSE,155,3.0,9.0,-999,-99.99,,,-99.99,,2013-07-24 00:15:00,
2013-07-23 18:05:00,101.0,-99.9,-100.00,SSE,155,3.0,9.0,-999,-99.99,,,-99.99,,2013-07-24 01:05:00,
2013-07-23 18:15:00,102.0,-99.9,-100.00,South,190,2.0,6.0,-999,-99.99,,,-99.99,,2013-07-24 01:15:00,
2013-07-23 19:06:00,102.0,-99.9,-100.00,South,190,2.0,6.0,-999,-99.99,,,-99.99,,2013-07-24 02:06:00,
2013-07-23 20:14:00,100.0,-99.9,-100.00,SE,126,6.0,12.0,-999,-99.99,,,-99.99,,2013-07-24 03:14:00,
2013-07-23 21:02:00,97.0,-99.9,-100.00,SSE,148,7.0,13.0,-999,-99.99,,,-99.99,,2013-07-24 04:02:00,
2013-07-23 21:11:00,97.0,-99.9,-100.00,SSE,148,7.0,13.0,-999,-99.99,,,-99.99,,2013-07-24 04:11:00,
2013-07-23 22:02:00,88.0,-99.9,-100.00,SE,133,3.0,5.0,-999,-99.99,,,-99.99,,2013-07-24 05:02:00,
2013-07-23 22:11:00,88.0,-99.9,-100.00,SE,133,3.0,5.0,-999,-99.99,,,-99.99,,2013-07-24 05:11:00,
2013-07-23 23:12:00,82.0,-99.9,-100.00,NNW,334,3.0,6.0,-999,-99.99,,,-99.99,,2013-07-24 06:12:00,